[[{"header":{"parameterUnit":"m.s-1","parameterCategory":1,"la1":30.2991,"la2":30.254,"lo1":-89.0895,"lo2":-89.0444,"dy":0.0017,"dx":0.0017,"nx":28,"ny":28,"refTime":"2025-08-01T21:00:00:Z","depth":0,"parameterNumber":2,"parameterNumberName":"U-component_of_WINDS"},"data":[0,0,0,0,0,0,0,0,0,0,0,0,0,0,0,0,0,0,0,0,0,0,0,0,0,0,0,0,0,0,0,0,0,0,0,0,0,0,0,0,0,0,0,0,0,0,0,0,0,0,0,0,0,0,0,0,0,0,-0.0181,-0.0181,0,-0.0205,-0.0205,-0.0206,-0.0224,-0.0224,-0.0225,-0.0225,-0.0249,-0.025,-0.025,0,0,0,0,0,0,0,0,0,0,0,0,0,-0.015,-0.015,-0.0181,-0.0181,-0.0181,-0.0205,-0.0205,-0.0206,-0.0224,-0.0224,-0.0225,-0.0225,-0.0249,-0.025,-0.025,0,0,0,0,0,0,0,0,0,0,0,0,0,-0.0168,-0.015,-0.0181,-0.0193,-0.0195,-0.0205,-0.0205,-0.0206,-0.0224,-0.0224,-0.0225,-0.0225,-0.0249,-0.025,-0.025,-0.025,0,0,-0.0253,-0.0253,0,0,0,0,0,0,0,0,-0.0167,-0.0169,-0.0191,-0.0193,-0.0194,-0.0212,-0.0203,-0.0221,-0.0224,-0.0213,-0.0225,-0.0225,-0.0237,-0.0238,-0.0242,-0.0251,-0.0252,-0.0253,-0.0253,-0.0254,-0.0254,0,0,0,0,0,0,0,-0.0165,-0.0168,-0.019,-0.0192,-0.0193,-0.0198,-0.0201,-0.0207,-0.0223,-0.0214,-0.0215,-0.0218,-0.0237,-0.0242,-0.0243,-0.0252,-0.0253,-0.0253,-0.0254,-0.0254,-0.0261,-0.0261,0,0,0,0,0,0,-0.0162,-0.0167,-0.019,-0.0191,-0.0181,-0.0198,-0.0201,-0.0206,-0.0223,-0.0226,-0.0218,-0.0219,-0.024,-0.0242,-0.0244,-0.0244,-0.0254,-0.0254,-0.0255,-0.0261,-0.0261,-0.0261,0,0,0,0,0,0,-0.0161,-0.0164,-0.0189,-0.0179,-0.0183,-0.0198,-0.0203,-0.0206,-0.021,-0.0226,-0.0229,-0.0219,-0.0241,-0.0243,-0.0248,-0.0246,-0.0255,-0.0255,-0.0262,-0.0261,-0.0261,-0.0245,0,0,0,0,0,0,-0.016,-0.0164,-0.0164,-0.0179,-0.0183,-0.0193,-0.0203,-0.0207,-0.0212,-0.0213,-0.0228,-0.0231,-0.0241,-0.0247,-0.0249,-0.0247,-0.0256,-0.0262,-0.0262,-0.0261,-0.0246,-0.0244,-0.0243,0,0,0,0,0,-0.0159,-0.0158,-0.0164,-0.0166,-0.0184,-0.0192,-0.0195,-0.0207,-0.0211,-0.0212,-0.0221,-0.023,-0.0245,-0.0247,-0.025,-0.0248,-0.0262,-0.0262,-0.0261,-0.0247,-0.0245,-0.0243,0,0,0,0,0,0,-0.0142,-0.0161,-0.0167,-0.0171,-0.018,-0.0195,-0.0196,-0.0204,-0.0212,-0.0213,-0.0227,-0.0231,-0.0234,-0.0241,-0.0243,-0.0248,-0.0255,-0.0255,-0.0243,-0.0241,-0.024,-0.0238,-0.0256,0,0,0,0,0,-0.0139,-0.0145,-0.016,-0.0162,-0.0167,-0.018,-0.0185,-0.0193,-0.0203,-0.0207,-0.0217,-0.0226,-0.0233,-0.0238,-0.0245,-0.0247,-0.025,-0.0247,-0.0245,-0.0244,-0.0244,-0.0245,-0.0244,-0.0259,-0.0259,-0.0259,0,0,-0.0133,-0.0143,-0.0146,-0.0159,-0.0167,-0.0173,-0.0184,-0.0189,-0.0193,-0.0208,-0.0213,-0.0221,-0.0232,-0.0236,-0.0238,-0.0242,-0.024,-0.0243,-0.0242,-0.0242,-0.0244,-0.0243,-0.0242,-0.0259,-0.0259,-0.0259,0,0,-0.0124,-0.0132,-0.0135,-0.0142,-0.0154,-0.0163,-0.0164,-0.0178,-0.0184,-0.019,-0.0201,-0.0205,-0.0217,-0.0225,-0.023,-0.0223,-0.0231,-0.0224,-0.0216,-0.0218,-0.0217,-0.0216,-0.0213,-0.0212,-0.0224,-0.0224,-0.0224,0,-0.0114,-0.0123,-0.0135,-0.014,-0.0145,-0.0158,-0.0161,-0.0168,-0.0181,-0.0185,-0.0189,-0.0203,-0.0212,-0.0217,-0.0216,-0.0219,-0.022,-0.0223,-0.0216,-0.0215,-0.0214,-0.0212,-0.0211,-0.0223,-0.0223,-0.0223,-0.0224,0,-0.011,-0.0116,-0.0117,-0.0129,-0.0135,-0.0138,-0.0151,-0.0155,-0.0162,-0.0171,-0.0176,-0.0187,-0.0196,-0.0198,-0.0206,-0.0205,-0.0207,-0.0213,-0.0221,-0.0212,-0.021,-0.0209,-0.0222,-0.0222,-0.0223,-0.0223,0,0,-0.0092,-0.0111,-0.0111,-0.0117,-0.0131,-0.0135,-0.0139,-0.0148,-0.0152,-0.016,-0.0164,-0.0173,-0.0179,-0.0185,-0.0193,-0.0194,-0.0188,-0.02,-0.0201,-0.0198,-0.0187,-0.0183,-0.0182,-0.0193,-0.0193,-0.0193,-0.0187,0,-0.0086,-0.0094,-0.0104,-0.0109,-0.0114,-0.0126,-0.013,-0.0138,-0.0146,-0.0152,-0.016,-0.0167,-0.0174,-0.0177,-0.0179,-0.0188,-0.0186,-0.0189,-0.0197,-0.0197,-0.0194,-0.0181,-0.0176,-0.017,-0.0186,-0.0186,-0.0186,0,-0.0079,-0.0087,-0.0092,-0.0105,-0.0107,-0.011,-0.0119,-0.0124,-0.0134,-0.014,-0.0146,-0.0155,-0.016,-0.0166,-0.0172,-0.0174,-0.0178,-0.0182,-0.0183,-0.0184,-0.0191,-0.0183,-0.0168,-0.0167,-0.0185,-0.0185,-0.0185,0,-0.0066,-0.0077,-0.0082,-0.0086,-0.0101,-0.0103,-0.0109,-0.012,-0.0124,-0.0132,-0.0135,-0.0143,-0.0148,-0.0154,-0.0165,-0.0168,-0.017,-0.0177,-0.0175,-0.0174,-0.0175,-0.0175,-0.0162,-0.0176,-0.0176,-0.0177,-0.0177,0,-0.0058,-0.006,-0.0076,-0.0079,-0.0082,-0.0094,-0.0097,-0.0104,-0.0113,-0.0117,-0.0128,-0.0131,-0.0145,-0.015,-0.0159,-0.0163,-0.0165,-0.0169,-0.0172,-0.0169,-0.0168,-0.0172,-0.0173,-0.0176,-0.0176,-0.0176,-0.0176,0,-0.0044,-0.0054,-0.006,-0.0073,-0.0077,-0.0079,-0.009,-0.0093,-0.0101,-0.0106,-0.0108,-0.0121,-0.0128,-0.0139,-0.0149,-0.0154,-0.0157,-0.0161,-0.0154,-0.0155,-0.0153,-0.0153,-0.0142,-0.0141,-0.0156,-0.0155,-0.0155,0,-0.0038,-0.004,-0.0054,-0.0057,-0.0063,-0.0069,-0.0074,-0.0085,-0.009,-0.0101,-0.0102,-0.011,-0.0117,-0.0127,-0.0137,-0.0145,-0.0149,-0.0144,-0.015,-0.0147,-0.0149,-0.0149,-0.0149,-0.0143,-0.0143,-0.0143,-0.0142,0,-0.0027,-0.0032,-0.0038,-0.0046,-0.0052,-0.0059,-0.0066,-0.0068,-0.0082,-0.0086,-0.0093,-0.0098,-0.0108,-0.0116,-0.0125,-0.0131,-0.0139,-0.014,-0.014,-0.0138,-0.0134,-0.0136,-0.0151,-0.0141,-0.0141,-0.0141,-0.0141,-0.0141,-0.0017,-0.002,-0.0029,-0.0036,-0.0043,-0.005,-0.0053,-0.0061,-0.0067,-0.0077,-0.0083,-0.0089,-0.0099,-0.0112,-0.0117,-0.0123,-0.0126,-0.0126,-0.0126,-0.0126,-0.0125,-0.0132,-0.0124,-0.0124,-0.0124,-0.0124,-0.0124,0,-0.0007,-0.0014,-0.002,-0.003,-0.0035,-0.0041,-0.005,-0.0054,-0.0059,-0.0067,-0.0074,-0.0082,-0.0089,-0.0099,-0.0107,-0.0109,-0.0113,-0.0111,-0.0111,-0.0112,-0.0121,-0.0121,-0.0107,-0.0107,-0.0107,-0.0107,-0.0107,-0.0107,-0.0002,-0.0007,-0.0013,-0.0021,-0.0027,-0.0034,-0.0038,-0.0044,-0.0051,-0.0059,-0.0065,-0.0071,-0.008,-0.0089,-0.0096,-0.0098,-0.0101,-0.0098,-0.0102,-0.011,-0.0112,-0.0113,-0.0113,-0.0098,-0.0098,-0.0093,-0.0093,-0.0093]},{"header":{"parameterUnit":"m.s-1","parameterCategory":1,"la1":30.2991,"la2":30.254,"lo1":-89.0895,"lo2":-89.0444,"dy":0.0017,"dx":0.0017,"nx":28,"ny":28,"refTime":"2025-08-01T21:00:00:Z","depth":0,"parameterNumber":3,"parameterNumberName":"V-component_of_WINDS"},"data":[0,0,0,0,0,0,0,0,0,0,0,0,0,0,0,0,0,0,0,0,0,0,0,0,0,0,0,0,0,0,0,0,0,0,0,0,0,0,0,0,0,0,0,0,0,0,0,0,0,0,0,0,0,0,0,0,0,0,0.9166,0.9166,0,0.9164,0.9164,0.9164,0.9161,0.9161,0.9161,0.9161,0.9157,0.9157,0.9157,0,0,0,0,0,0,0,0,0,0,0,0,0,0.9161,0.9161,0.9166,0.9166,0.9166,0.9165,0.9164,0.9164,0.9161,0.9161,0.9161,0.9161,0.9157,0.9157,0.9157,0,0,0,0,0,0,0,0,0,0,0,0,0,0.9162,0.9161,0.9166,0.9164,0.9164,0.9165,0.9164,0.9164,0.9161,0.9161,0.9161,0.9161,0.9157,0.9157,0.9157,0.9158,0,0,0.9157,0.9157,0,0,0,0,0,0,0,0,0.9162,0.9162,0.9164,0.9164,0.9164,0.9163,0.9161,0.9162,0.9162,0.9162,0.9161,0.9161,0.9159,0.9159,0.9159,0.9158,0.9158,0.9157,0.9157,0.9157,0.9157,0,0,0,0,0,0,0,0.9162,0.9162,0.9165,0.9164,0.9164,0.9162,0.9162,0.9161,0.9161,0.9162,0.9162,0.9162,0.9159,0.9159,0.9159,0.9158,0.9157,0.9157,0.9157,0.9157,0.9155,0.9155,0,0,0,0,0,0,0.9162,0.9162,0.9165,0.9165,0.9163,0.9162,0.9162,0.9163,0.9161,0.9161,0.9162,0.9162,0.9159,0.9159,0.9158,0.9158,0.9157,0.9157,0.9157,0.9155,0.9155,0.9155,0,0,0,0,0,0,0.9162,0.9163,0.9165,0.9163,0.9164,0.9162,0.9164,0.9163,0.9163,0.9161,0.9161,0.9162,0.9159,0.9159,0.9158,0.9158,0.9157,0.9157,0.9155,0.9155,0.9155,0.9157,0,0,0,0,0,0,0.9162,0.9163,0.9164,0.9164,0.9164,0.9166,0.9164,0.9164,0.9164,0.9163,0.9161,0.9161,0.9159,0.9158,0.9158,0.9157,0.9156,0.9155,0.9155,0.9155,0.9157,0.9158,0.9158,0,0,0,0,0,0.9162,0.9165,0.9165,0.9165,0.9166,0.9166,0.9166,0.9165,0.9164,0.9164,0.9162,0.9161,0.9158,0.9158,0.9158,0.9157,0.9155,0.9155,0.9155,0.9157,0.9158,0.9158,0,0,0,0,0,0,0.9166,0.9165,0.9165,0.9168,0.9167,0.9166,0.9167,0.9165,0.9164,0.9164,0.9161,0.9161,0.916,0.9158,0.9159,0.9157,0.9156,0.9156,0.9158,0.9158,0.9158,0.9158,0.9156,0,0,0,0,0,0.9167,0.9169,0.9168,0.9171,0.917,0.9169,0.9169,0.9167,0.9166,0.9166,0.9164,0.9162,0.916,0.9159,0.9157,0.9157,0.9155,0.9156,0.9156,0.9157,0.9156,0.9154,0.9153,0.9154,0.9154,0.9154,0,0,0.917,0.917,0.9171,0.9171,0.9171,0.917,0.9168,0.9169,0.9168,0.9165,0.9165,0.9163,0.916,0.9159,0.9158,0.9157,0.9156,0.9157,0.9157,0.9157,0.9154,0.9153,0.9153,0.9154,0.9154,0.9154,0,0,0.9175,0.9176,0.9177,0.9176,0.9175,0.9173,0.9174,0.9172,0.9171,0.917,0.9167,0.9165,0.9163,0.916,0.9159,0.9159,0.9157,0.9159,0.9159,0.9157,0.9157,0.9156,0.9155,0.9155,0.9158,0.9158,0.9158,0,0.9178,0.9179,0.9178,0.9178,0.9177,0.9175,0.9175,0.9174,0.9172,0.917,0.917,0.9165,0.9163,0.916,0.916,0.9159,0.9158,0.9159,0.9157,0.9157,0.9157,0.9155,0.9155,0.9159,0.9159,0.9159,0.9159,0,0.9182,0.9183,0.9184,0.9182,0.9181,0.9181,0.9178,0.9177,0.9175,0.9173,0.9171,0.9168,0.9165,0.9164,0.9162,0.916,0.9159,0.9158,0.9157,0.9157,0.9155,0.9155,0.9159,0.9159,0.9159,0.9159,0,0,0.9191,0.9187,0.9187,0.9185,0.9183,0.9182,0.9181,0.9178,0.9176,0.9174,0.9172,0.9169,0.9167,0.9165,0.9162,0.916,0.9158,0.9159,0.9158,0.9158,0.9153,0.9153,0.9153,0.9156,0.9156,0.9156,0.9152,0,0.9194,0.9194,0.9191,0.919,0.9189,0.9185,0.9184,0.9181,0.9178,0.9175,0.9171,0.9169,0.9167,0.9166,0.9163,0.9159,0.9157,0.9159,0.9152,0.9152,0.9153,0.9152,0.9153,0.915,0.9152,0.9152,0.9152,0,0.9199,0.9197,0.9196,0.9191,0.919,0.919,0.9185,0.9183,0.9179,0.9177,0.9173,0.917,0.9166,0.9165,0.9159,0.916,0.9157,0.9154,0.9154,0.9153,0.9152,0.915,0.9149,0.9148,0.9151,0.9151,0.9151,0,0.9203,0.92,0.9199,0.9198,0.9192,0.9191,0.9189,0.9184,0.9182,0.9177,0.9175,0.9171,0.9168,0.9163,0.9158,0.9158,0.9151,0.915,0.9147,0.9147,0.9146,0.9146,0.9144,0.9145,0.9145,0.9145,0.9145,0,0.9207,0.9206,0.9201,0.92,0.9198,0.9194,0.9191,0.9188,0.9184,0.918,0.9176,0.9173,0.9167,0.9162,0.9158,0.9151,0.915,0.9147,0.9146,0.9147,0.9148,0.9145,0.9145,0.9145,0.9145,0.9145,0.9145,0,0.9212,0.9209,0.9207,0.9201,0.92,0.9198,0.9193,0.919,0.9187,0.9182,0.9181,0.9174,0.9168,0.9163,0.9155,0.9151,0.9145,0.9144,0.9147,0.9146,0.9143,0.9143,0.9138,0.9137,0.914,0.914,0.914,0,0.9215,0.9214,0.9208,0.9206,0.9204,0.92,0.9198,0.9193,0.919,0.9183,0.9181,0.9174,0.9169,0.9159,0.9153,0.9146,0.9144,0.9142,0.9143,0.9143,0.9142,0.9142,0.9141,0.9142,0.9142,0.9142,0.9142,0,0.9219,0.9217,0.9214,0.9209,0.9206,0.9202,0.9198,0.9196,0.9189,0.9186,0.918,0.9175,0.9166,0.9159,0.9151,0.9146,0.9142,0.9142,0.9141,0.9142,0.9143,0.9141,0.9146,0.9142,0.9142,0.9142,0.9142,0.9142,0.9222,0.9221,0.9216,0.9211,0.9207,0.9203,0.92,0.9195,0.919,0.9183,0.918,0.9173,0.9165,0.9154,0.9149,0.9142,0.9142,0.914,0.914,0.9139,0.9139,0.9145,0.9141,0.9141,0.9141,0.9141,0.9141,0,0.9225,0.9221,0.9217,0.9211,0.9207,0.9204,0.9199,0.9195,0.9189,0.9183,0.9178,0.9169,0.9162,0.9154,0.9145,0.9141,0.9139,0.9139,0.9139,0.9137,0.9141,0.9142,0.9141,0.9141,0.9141,0.9141,0.9141,0.9141,0.9226,0.9222,0.9219,0.9212,0.9208,0.9202,0.9198,0.9193,0.9188,0.9179,0.9173,0.9168,0.916,0.9151,0.9143,0.914,0.9137,0.9137,0.9134,0.9137,0.9138,0.9138,0.9139,0.9137,0.9137,0.9131,0.9131,0.9131]}]]